TimePDT,TemperatureF,Dew PointF,Humidity,Sea Level PressureIn,VisibilityMPH,Wind Direction,Wind SpeedMPH,Gust SpeedMPH,PrecipitationIn,Events,Conditions,WindDirDegrees,DateUTC
12:20 AM,42.8,42.8,100,30.05,1.8,Calm,Calm,-,N/A,,Partly Cloudy,0,2013-10-09 07:20:00
12:23 AM,42.8,42.8,100,30.05,0.8,Calm,Calm,-,N/A,,Mist,0,2013-10-09 07:23:00
12:36 AM,41.0,41.0,100,30.05,1.2,NNW,3.5,-,N/A,,Partly Cloudy,340,2013-10-09 07:36:00
12:40 AM,41.0,41.0,100,30.05,4.0,North,4.6,-,N/A,,Partly Cloudy,360,2013-10-09 07:40:00
12:53 AM,43.0,42.1,97,30.05,10.0,North,9.2,-,N/A,,Clear,10,2013-10-09 07:53:00
1:53 AM,43.0,41.0,93,30.06,10.0,NNE,4.6,-,N/A,,Clear,30,2013-10-09 08:53:00
2:21 AM,42.8,41.0,93,30.07,10.0,North,3.5,-,N/A,,Mostly Cloudy,10,2013-10-09 09:21:00
2:53 AM,44.1,43.0,96,30.07,10.0,NNE,3.5,-,N/A,,Overcast,20,2013-10-09 09:53:00
3:14 AM,44.6,42.8,93,30.07,10.0,North,8.1,-,N/A,,Overcast,10,2013-10-09 10:14:00
3:53 AM,44.1,43.0,96,30.08,9.0,NNE,5.8,-,N/A,,Overcast,20,2013-10-09 10:53:00
4:53 AM,44.1,43.0,96,30.09,10.0,NNE,5.8,-,N/A,,Overcast,20,2013-10-09 11:53:00
5:50 AM,44.6,42.8,93,30.09,10.0,North,6.9,-,N/A,,Overcast,360,2013-10-09 12:50:00
5:53 AM,44.1,42.1,93,30.09,10.0,North,6.9,-,N/A,,Overcast,360,2013-10-09 12:53:00
6:53 AM,43.0,41.0,93,30.10,10.0,North,10.4,-,N/A,,Overcast,10,2013-10-09 13:53:00
7:19 AM,44.6,41.0,87,30.10,10.0,NE,6.9,-,N/A,,Overcast,40,2013-10-09 14:19:00
7:53 AM,44.1,41.0,89,30.12,9.0,NE,8.1,-,N/A,,Overcast,40,2013-10-09 14:53:00
8:53 AM,44.1,42.1,93,30.13,10.0,NE,8.1,-,N/A,,Overcast,40,2013-10-09 15:53:00
9:53 AM,45.0,41.0,86,30.13,10.0,NE,10.4,-,N/A,,Overcast,40,2013-10-09 16:53:00
10:14 AM,44.6,41.0,87,30.12,10.0,NNE,6.9,-,N/A,,Overcast,20,2013-10-09 17:14:00
10:44 AM,46.4,42.8,87,30.11,10.0,NNE,6.9,-,N/A,,Scattered Clouds,20,2013-10-09 17:44:00
10:53 AM,48.9,43.0,80,30.12,10.0,NNE,8.1,-,N/A,,Partly Cloudy,20,2013-10-09 17:53:00
11:53 AM,51.1,43.0,74,30.10,10.0,NNE,9.2,-,N/A,,Clear,20,2013-10-09 18:53:00
12:53 PM,54.0,44.1,69,30.08,10.0,NNE,4.6,-,N/A,,Clear,20,2013-10-09 19:53:00
1:53 PM,55.9,43.0,62,30.05,10.0,NE,6.9,-,N/A,,Clear,50,2013-10-09 20:53:00
2:53 PM,57.9,43.0,58,30.04,10.0,NE,8.1,-,N/A,,Clear,50,2013-10-09 21:53:00
3:53 PM,57.9,44.1,60,30.03,10.0,North,4.6,-,N/A,,Clear,10,2013-10-09 22:53:00
4:53 PM,59.0,43.0,55,30.03,10.0,North,5.8,-,N/A,,Clear,360,2013-10-09 23:53:00
5:53 PM,57.9,43.0,58,30.01,10.0,NNE,4.6,-,N/A,,Clear,30,2013-10-10 00:53:00
6:53 PM,52.0,45.0,77,30.00,10.0,Calm,Calm,-,N/A,,Clear,0,2013-10-10 01:53:00
7:53 PM,48.9,44.1,83,30.00,8.0,Calm,Calm,-,N/A,,Clear,0,2013-10-10 02:53:00
8:53 PM,48.0,44.1,86,30.00,10.0,North,3.5,-,N/A,,Clear,350,2013-10-10 03:53:00
9:53 PM,46.0,44.1,93,30.01,6.0,Calm,Calm,-,N/A,,Clear,0,2013-10-10 04:53:00
10:53 PM,46.0,44.1,93,30.01,10.0,Calm,Calm,-,N/A,,Clear,0,2013-10-10 05:53:00
11:53 PM,46.9,45.0,93,30.00,10.0,Calm,Calm,-,N/A,,Clear,0,2013-10-10 06:53:00